Theta_e
308 304 303 303 303 304 306 308 307 307 310 307 303 305 310 309 308 312 317 312 311 330 331 332 335 337 348 350 353 344 359 360 362 360 357 353 358 354 352 355 353 351 348 344 342
304 303 302 302 302 303 304 306 309 306 303 304 305 309 311 311 313 316 316 315 312 313 330 333 331 328 340 351 354 360 360 358 353 351 351 353 356 356 356 357 355 352 347 342 342
302 302 301 301 301 301 302 305 304 303 304 306 308 313 312 311 319 321 322 319 315 314 319 329 328 324 327 337 354 358 358 355 351 350 350 349 356 356 358 360 355 354 345 339 338
302 302 301 301 301 301 301 303 305 306 307 307 313 317 313 314 323 320 319 321 315 314 317 318 317 324 328 340 346 353 352 351 348 347 349 350 346 359 358 356 352 349 341 337 337
302 302 302 301 301 301 302 304 306 307 308 307 315 318 314 317 315 321 322 322 316 320 319 318 317 319 328 336 342 350 351 351 349 347 348 345 348 356 358 353 350 347 343 342 346
302 302 302 301 301 301 303 305 307 308 310 309 317 316 315 317 315 319 319 323 318 323 319 317 317 318 327 329 341 345 348 347 349 345 347 349 347 351 357 353 351 349 350 349 348
302 301 302 302 302 302 304 308 309 309 311 310 318 317 317 315 315 320 322 323 321 320 318 317 317 322 325 331 331 335 342 346 348 347 349 348 349 363 356 354 353 351 350 350 348
302 302 302 302 302 302 306 310 311 310 312 312 320 318 318 314 315 317 318 324 325 319 317 318 317 319 321 322 323 336 338 347 350 349 350 347 351 360 355 354 355 352 350 350 348
302 303 303 303 303 303 307 311 309 314 321 318 320 319 321 318 322 324 319 324 323 321 317 318 317 319 321 321 321 331 337 341 349 349 351 349 349 359 355 354 355 352 351 351 348
302 303 304 305 304 303 310 310 307 318 322 320 322 321 317 320 315 315 323 323 320 318 318 317 315 317 319 318 325 331 339 339 342 349 350 352 347 356 355 355 355 353 352 351 349
304 304 304 306 305 306 310 309 304 303 311 306 306 320 313 310 310 316 318 323 322 320 319 318 318 320 320 320 322 330 335 338 340 342 350 348 350 350 356 355 356 355 353 352 350
303 303 304 306 305 308 309 306 306 307 303 306 307 307 307 308 309 311 317 322 320 324 321 323 322 320 324 322 322 325 329 336 339 339 342 347 349 349 355 355 355 355 354 353 351
302 302 303 307 305 307 309 309 309 308 303 306 308 308 308 308 309 310 313 319 322 320 324 324 327 325 326 326 324 325 327 329 339 338 337 343 345 351 349 353 353 353 352 351 349
302 302 303 306 306 308 309 308 308 307 304 309 311 311 309 310 311 314 313 317 322 321 319 324 325 327 328 327 326 326 326 328 334 338 340 339 347 343 349 353 353 353 352 351 349
301 303 305 307 308 308 308 309 309 306 307 313 308 309 307 307 309 314 313 316 320 321 319 322 326 327 328 328 328 327 327 328 332 336 337 338 342 342 348 358 353 349 346 345 349
301 302 308 308 307 308 309 309 306 307 312 310 307 307 306 306 308 311 312 313 318 320 321 322 324 326 328 329 330 329 330 331 331 332 338 337 339 340 353 357 353 348 347 346 349
301 303 311 309 307 310 311 304 306 308 308 308 305 305 305 307 308 310 311 312 316 323 322 322 322 325 329 330 330 330 329 334 333 334 335 333 333 336 348 352 351 349 350 349 349
301 307 311 312 312 312 311 304 310 310 307 306 305 304 306 309 309 309 311 311 318 319 321 321 322 323 326 330 332 330 329 331 337 332 331 327 334 334 330 335 350 349 350 351 345
301 309 312 311 311 311 303 306 308 309 307 307 304 304 305 306 309 310 310 313 315 317 319 320 321 326 327 328 330 330 330 324 322 322 325 327 327 326 326 326 348 351 352 352 348
303 308 310 310 311 309 304 308 308 309 307 306 307 304 304 305 308 310 310 311 311 315 315 318 321 322 327 327 329 328 325 327 318 328 324 323 324 330 326 325 325 350 353 352 348
305 305 311 309 310 303 305 307 308 307 307 308 308 306 306 306 307 307 309 308 313 315 314 314 316 322 322 322 330 325 327 325 324 318 325 322 325 321 324 324 324 335 350 350 348
304 306 310 309 306 304 307 308 309 309 308 308 308 308 308 306 309 309 312 312 311 315 315 315 319 323 323 322 321 332 321 321 323 320 318 320 325 325 323 324 324 325 346 348 348
303 304 309 307 305 306 306 309 309 310 310 308 308 307 306 307 309 312 311 310 312 314 316 315 322 323 323 320 320 321 328 320 317 317 319 323 324 321 323 325 327 327 327 346 348
303 306 303 302 302 306 307 309 310 310 310 309 308 306 307 307 308 310 311 312 311 310 312 315 319 320 324 323 321 322 323 322 321 321 321 321 323 323 324 325 330 325 327 334 346
302 304 304 305 305 305 306 307 310 310 308 308 309 308 308 308 307 309 310 309 308 311 312 313 317 314 315 317 320 322 327 325 321 321 323 322 324 323 322 326 329 329 329 338 347
304 305 301 303 305 306 307 309 311 311 310 310 310 309 309 306 307 307 307 308 309 309 310 310 313 312 313 321 325 327 331 330 324 323 323 321 323 322 327 330 334 336 335 339 346
306 306 305 307 307 308 308 309 309 309 310 310 309 310 309 307 305 304 306 307 309 310 310 311 310 311 319 326 330 332 326 331 326 323 322 324 322 331 334 339 340 328 330 335 338
Wind_Speed
26 28 29 30 29 28 27 26 26 26 23 21 20 20 19 17 19 12 11 17 22 13 10 19 15 12 13 4 4 6 2 4 10 6 4 5 4 5 10 12 4 6 10 24 39
30 31 33 32 31 31 30 30 26 23 22 23 22 20 16 14 16 16 37 31 25 23 17 20 10 11 4 6 5 7 2 7 7 4 4 0 3 10 8 8 16 18 20 32 35
34 34 36 35 35 35 34 30 27 24 25 24 21 17 13 8 5 10 4 16 33 26 23 21 17 7 6 5 9 10 6 7 6 9 6 7 13 5 16 9 24 28 24 27 28
36 37 38 38 37 36 35 32 29 28 27 24 17 14 6 0 5 3 5 2 27 31 27 9 4 7 6 10 12 6 13 12 8 6 5 7 8 10 9 8 21 28 31 28 22
38 39 40 41 39 37 35 33 32 32 33 20 10 8 1 1 12 10 6 4 30 31 27 14 10 8 10 10 16 14 16 12 12 8 9 3 0 9 8 18 22 22 24 26 22
38 39 40 40 39 37 35 34 36 39 32 13 4 2 2 5 11 10 16 12 33 30 24 16 10 11 6 11 14 7 19 17 13 8 6 5 2 6 14 25 25 26 24 22 22
38 38 40 40 38 37 34 33 37 42 27 8 4 5 4 18 5 6 6 17 29 40 14 26 21 12 9 4 22 18 16 10 10 13 6 9 3 11 19 24 26 24 23 19 21
40 41 42 42 39 37 32 34 36 29 13 2 6 7 9 16 17 23 22 14 21 38 26 29 28 4 3 6 8 7 9 13 14 9 2 9 7 17 22 24 23 23 20 20 20
42 45 46 45 42 39 32 30 25 13 9 7 8 6 11 15 4 17 20 12 23 25 25 15 10 7 2 4 5 4 8 8 18 18 12 11 5 23 23 23 23 23 21 19 19
44 46 47 46 42 37 28 22 24 4 5 2 2 4 7 2 14 31 16 19 7 10 4 9 5 5 7 5 11 5 5 6 9 16 16 21 11 22 25 23 24 22 22 20 20
45 47 46 46 40 26 29 15 9 6 2 8 18 13 28 26 30 10 11 17 9 6 9 8 10 16 23 12 6 6 7 10 6 10 25 21 22 20 27 21 23 23 21 21 23
45 47 51 48 35 14 23 4 7 14 11 14 13 16 32 19 11 18 11 10 10 18 9 4 18 18 6 9 11 14 11 14 15 12 10 17 19 23 27 28 29 25 23 24 22
48 49 54 44 23 11 19 12 29 28 2 11 4 3 8 5 6 17 2 6 6 9 16 19 7 15 15 14 15 15 16 16 11 6 8 7 6 19 23 23 22 23 27 26 25
49 49 53 37 6 20 11 26 33 21 4 7 6 4 12 1 3 15 8 8 9 18 10 16 20 19 17 21 18 16 20 18 17 7 5 6 12 9 23 19 23 24 22 23 24
51 49 46 14 11 10 20 31 37 2 4 5 7 9 9 10 9 14 23 5 18 11 10 17 21 24 22 26 20 19 14 14 17 5 2 15 6 11 28 23 23 24 23 19 23
53 52 31 5 12 14 24 35 10 5 4 4 6 13 13 17 14 14 12 11 9 18 20 15 12 21 27 17 20 13 11 9 6 4 10 16 6 9 21 29 29 28 21 20 22
53 45 14 8 5 21 27 10 5 3 11 9 8 9 7 15 11 15 13 11 8 9 14 18 22 23 13 19 14 13 7 7 4 7 9 9 6 13 26 29 35 36 25 25 24
54 35 11 8 13 19 15 6 2 11 3 6 7 6 7 12 4 17 13 9 18 14 7 15 19 23 21 12 19 14 11 6 9 5 7 6 9 12 12 17 35 37 32 29 23
52 30 17 22 28 17 5 3 2 6 8 11 7 5 5 7 1 10 10 2 12 20 11 9 16 4 20 19 15 11 18 11 5 2 4 4 5 9 12 7 22 26 25 25 26
35 14 7 38 29 4 4 5 4 6 8 7 5 5 5 7 7 8 6 10 11 16 15 5 9 12 28 11 20 18 9 9 4 12 5 5 6 10 11 12 14 29 29 30 26
13 4 11 37 12 5 2 3 5 13 9 5 3 3 4 2 4 6 3 9 17 18 13 9 5 13 4 10 23 4 15 6 7 6 10 4 10 8 11 12 10 20 31 31 31
9 4 18 23 6 3 3 7 9 11 10 6 4 3 1 3 1 3 6 3 14 14 10 9 6 7 10 12 4 21 8 10 9 10 3 4 12 6 12 12 11 14 28 30 30
5 3 11 14 4 4 5 7 8 9 7 4 3 4 3 2 3 1 3 6 11 11 7 8 3 8 10 4 3 5 12 10 7 6 10 13 15 6 6 8 13 19 19 30 30
2 4 4 4 2 2 5 5 8 10 0 6 5 2 4 2 4 3 2 4 7 12 8 8 4 9 8 9 10 5 12 9 17 8 10 11 11 7 15 14 16 10 14 22 28
1 1 2 4 4 9 7 7 10 6 4 9 7 5 4 5 5 4 3 5 5 6 3 2 8 11 20 27 25 24 12 13 14 14 14 11 7 9 9 12 9 5 10 17 25
1 2 3 3 5 8 5 4 9 10 8 12 5 14 12 7 9 7 6 5 3 2 3 3 5 15 23 18 18 18 6 7 13 17 6 8 8 8 6 10 6 7 14 17 23
3 2 2 3 3 3 3 9 13 15 6 10 11 7 9 12 10 13 13 12 8 8 6 5 4 6 6 6 6 5 13 7 6 7 9 11 10 4 8 9 15 7 14 10 9
Wind_Direction
359 357 355 352 349 345 340 335 331 329 322 320 319 316 313 309 307 291 235 229 215 142 161 162 180 183 183 215 216 145 110 145 188 222 257 334 159 183 96 138 126 204 138 149 161
360 358 357 354 350 345 341 336 332 332 333 329 321 313 312 316 305 257 257 248 221 185 164 165 184 186 180 208 187 198 184 214 210 224 156 172 188 128 137 130 106 104 110 145 157
2 0 357 355 352 348 344 341 339 335 334 330 323 313 308 330 289 246 337 240 221 187 179 176 176 173 202 225 212 191 216 158 202 221 214 195 135 131 135 149 152 144 146 157 162
2 359 357 355 353 349 346 345 342 338 335 330 322 316 312 193 249 205 34 53 191 186 186 192 199 174 184 213 216 263 230 215 208 217 223 209 150 177 193 185 163 151 151 156 168
0 359 356 354 352 349 345 342 338 337 331 322 320 313 108 232 250 223 339 308 170 177 180 181 186 177 192 208 242 237 248 233 219 217 233 59 92 205 175 137 143 144 152 160 167
360 358 355 352 350 348 342 337 337 338 334 306 293 188 164 247 259 275 251 171 172 174 184 185 198 205 227 234 209 240 234 257 191 223 246 178 272 20 150 144 148 155 163 167 174
360 357 354 352 351 347 339 336 336 334 326 276 224 201 230 241 223 135 201 199 184 181 173 199 212 186 201 209 239 246 267 251 191 213 183 149 250 156 159 152 156 166 167 169 177
359 357 354 352 351 348 339 338 335 339 347 209 179 197 251 262 295 275 240 232 204 193 186 192 208 223 181 300 317 226 229 242 211 161 206 154 216 160 166 159 163 171 174 174 181
360 357 354 350 349 348 343 347 341 342 11 113 127 183 263 314 256 302 226 197 192 195 204 178 180 208 261 216 309 210 240 234 220 184 154 195 185 164 173 167 167 175 180 181 186
357 355 353 348 347 347 349 357 350 326 39 187 276 287 270 2 336 318 223 198 165 170 187 207 188 180 219 163 213 201 195 217 229 197 184 199 212 167 177 173 172 175 182 187 191
355 352 349 345 344 351 354 359 11 334 167 232 257 258 281 296 312 294 317 178 190 171 179 194 188 206 213 209 239 252 216 243 250 202 188 206 218 176 177 175 177 185 187 190 190
354 350 348 342 342 357 2 49 323 302 308 311 259 247 255 265 293 294 335 170 179 205 163 164 217 218 196 196 211 235 246 252 267 266 179 210 218 176 178 184 184 180 190 197 191
353 351 349 343 345 348 342 331 337 332 276 299 246 199 256 160 234 281 306 299 194 197 199 204 230 204 203 222 218 226 229 246 235 297 293 165 194 167 202 183 184 187 196 190 190
350 350 348 346 29 337 315 335 337 329 37 275 359 18 4 170 251 315 227 198 237 222 212 225 232 201 206 219 210 222 227 240 255 249 244 203 235 170 185 186 191 193 196 197 192
348 348 344 351 322 314 321 329 329 46 350 56 10 17 308 40 301 348 356 296 219 252 179 220 203 218 213 213 206 224 231 231 248 224 195 271 223 225 176 181 199 205 212 207 196
346 346 340 338 312 320 330 329 341 45 254 34 47 343 13 17 341 345 6 9 282 228 258 230 235 206 228 225 225 209 225 244 242 192 242 248 228 243 179 186 202 213 211 210 200
342 345 343 300 277 316 322 342 40 117 351 6 349 347 18 359 348 5 359 27 42 327 232 228 236 231 212 216 211 223 160 228 260 227 233 219 221 241 181 197 196 209 209 207 203
341 349 353 298 310 308 342 30 78 352 70 302 336 352 37 26 342 356 5 6 35 31 304 217 231 224 216 208 203 221 196 166 210 207 222 216 207 240 228 190 197 203 201 199 204
340 353 14 350 337 290 68 26 242 347 331 344 344 36 10 359 304 9 347 63 45 40 16 339 237 219 222 217 191 202 215 185 126 212 173 219 210 269 255 176 187 199 196 200 211
335 323 345 353 349 185 88 228 270 315 355 357 38 19 347 7 11 4 350 11 342 39 14 321 294 239 234 232 217 202 159 188 178 220 241 262 210 212 227 242 176 192 198 201 209
340 1 340 350 339 54 67 324 309 352 6 60 22 351 354 18 327 336 336 328 7 350 4 325 257 299 292 214 219 174 205 194 161 162 225 228 245 198 219 231 217 179 193 198 202
350 349 356 2 46 20 21 323 310 9 348 16 5 20 255 314 299 347 344 320 1 7 342 331 297 289 249 246 299 222 187 185 204 213 199 191 256 208 214 218 227 227 193 197 196
324 273 352 24 55 336 302 312 326 354 342 10 311 40 289 316 352 7 334 330 11 7 25 8 343 314 308 23 260 209 211 196 175 142 198 219 255 243 249 237 227 230 184 190 195
342 348 332 30 82 359 331 283 334 329 138 321 286 284 3 332 191 261 318 18 0 324 329 356 271 251 279 305 322 277 224 201 193 196 198 219 251 282 284 285 297 237 177 170 189
5 311 211 323 337 317 306 277 327 333 4 358 340 40 287 296 313 234 226 291 20 9 56 303 265 261 258 264 272 262 251 209 202 193 196 222 203 247 264 275 261 180 145 158 174
46 7 5 269 292 310 305 346 324 331 335 317 323 319 325 222 211 256 250 271 172 22 322 232 267 307 288 257 227 242 243 265 211 202 150 190 238 239 251 292 99 103 140 159 168
348 65 142 250 266 289 283 322 309 320 321 310 313 299 295 275 278 237 229 237 175 170 230 193 262 335 267 314 188 71 356 7 205 166 187 202 227 151 58 351 21 13 88 107 120